Location: Observatoire de la D�couverte de Val-B�lair
(46.8294°N, 71.4556°W)
Time: 19:09:41
(UTC-05:00)

Envisat - Visible Passes

Search period start: 25 January 2020 00:00
Search period end: 04 February 2020 00:00
Orbit: 764 x 766 km, 98.1° (Epoch: 25 January)

Date Brightness Start Highest point End Pass type
(mag) Time Alt. Az. Time Alt. Az. Time Alt. Az.
25 Jan 3.9 06:13:29 10° NNE 06:18:30 54° E 06:23:27 10° S visible
25 Jan 3.1 17:30:47 10° SSE 17:35:52 87° WSW 17:40:59 10° NNW visible
25 Jan 6.3 19:13:47 10° WSW 19:15:39 12° W 19:17:32 10° WNW visible
26 Jan 5.3 05:37:13 10° NE 05:41:29 26° E 05:45:43 10° SSE visible
26 Jan 5.3 18:34:15 10° SSW 18:38:25 25° W 18:42:37 10° NW visible
27 Jan 6.3 05:02:09 10° ENE 05:04:16 12° E 05:06:23 10° ESE visible
27 Jan 3.1 06:38:54 10° NNE 06:44:01 89° WNW 06:49:06 10° SSW visible
27 Jan 3.9 17:56:28 10° S 18:01:24 52° W 18:06:23 10° NNW visible
28 Jan 4.3 06:02:17 10° NNE 06:07:10 44° E 06:11:58 10° S visible
28 Jan 3.0 17:19:31 10° SSE 17:24:35 76° ENE 17:29:41 10° N visible
28 Jan 6.1 19:01:18 10° WSW 19:04:12 15° W 19:07:07 10° NW visible
29 Jan 5.7 05:26:13 10° NE 05:30:05 21° E 05:33:55 10° SE visible
29 Jan 5.0 18:22:33 10° SSW 18:27:02 31° W 18:31:33 10° NNW visible
30 Jan 3.3 06:27:36 10° NNE 06:32:43 74° ESE 06:37:47 10° S visible
30 Jan 3.5 17:45:03 10° S 17:50:05 65° WSW 17:55:09 10° NNW visible
31 Jan 4.8 05:51:08 10° NNE 05:55:47 35° E 06:00:25 10° SSE visible
31 Jan 3.0 17:08:20 10° SSE 17:13:19 61° ENE 17:18:21 10° N visible
31 Jan 5.8 18:49:14 10° SW 18:52:46 19° W 18:56:20 10° NW visible
01 Feb 6.0 05:15:21 10° NE 05:18:40 17° E 05:21:57 10° SE visible
01 Feb 4.6 18:10:57 10° SSW 18:15:40 38° W 18:20:26 10° NNW visible
02 Feb 3.7 06:16:21 10° NNE 06:21:24 59° E 06:26:24 10° S visible
02 Feb 3.2 17:33:42 10° SSE 17:38:46 81° WSW 17:43:53 10° NNW visible
02 Feb 6.4 19:17:23 10° W 19:18:36 11° W 19:19:50 10° WNW visible
03 Feb 5.2 05:40:02 10° NE 05:44:25 28° E 05:48:46 10° SSE visible
03 Feb 5.5 18:37:21 10° SW 18:41:21 23° W 18:45:24 10° NW visible
